Location: The C. Gantt Observatory
(33.6981°N, 81.6836°W)
Time: 17:12:34
(UTC-04:00)

Iridium 30 - Visible Passes

Search period start: 30 June 2016 00:00
Search period end: 10 July 2016 00:00
Orbit: 776 x 779 km, 86.4° (Epoch: 30 June)

Date Brightness Start Highest point End Pass type
(mag) Time Alt. Az. Time Alt. Az. Time Alt. Az.
30 Jun 7.2 00:30:05 10° NNW 00:34:13 25° W 00:34:13 25° W visible
30 Jun 7.3 22:16:55 10° NE 22:19:58 16° ENE 22:20:26 15° E visible
30 Jun 6.2 23:55:55 10° NNW 00:00:55 47° W 00:00:55 47° W visible
01 Jul 5.3 23:22:13 10° N 23:27:28 87° E 23:27:37 84° SSE visible
02 Jul 5.9 22:48:55 10° NNE 22:53:54 44° E 22:54:20 43° E visible
03 Jul 7.7 00:30:59 10° NW 00:34:10 17° W 00:34:49 16° W visible
03 Jul 6.8 22:16:07 10° NNE 22:20:14 23° E 22:21:03 22° E visible
03 Jul 6.8 23:56:20 10° NNW 00:00:55 32° W 00:01:32 31° W visible
04 Jul 7.5 21:44:37 10° NE 21:46:25 12° ENE 21:47:48 11° E visible
04 Jul 5.8 23:22:23 10° N 23:27:32 62° W 23:28:17 56° SW visible
05 Jul 5.5 22:48:51 10° N 22:54:03 67° E 22:55:02 54° SE visible
06 Jul 8.1 00:32:57 10° WNW 00:34:03 11° WNW 00:35:10 10° W visible
06 Jul 6.3 22:15:43 10° NNE 22:20:26 34° E 22:21:47 29° ESE visible
06 Jul 7.4 23:56:59 10° NW 00:00:52 21° W 00:02:16 19° WSW visible
07 Jul 7.1 21:43:13 10° NE 21:46:43 18° E 21:48:33 15° ESE visible
07 Jul 6.5 23:22:41 10° NNW 23:27:33 41° W 23:29:03 33° SW visible
08 Jul 5.5 22:48:54 10° N 22:54:08 82° W 22:55:50 44° S visible
09 Jul 5.7 22:15:31 10° N 22:20:37 51° E 22:22:38 33° SE visible
